When you browse on this site, cookies collect data to enhance your experience and personalize the content and advertising you see.
Visit our Privacy Policy to learn more. By continuing to use the site, you agree to this use of cookies and data.
  • In Switzerland
  • List of Countries
  • For 7 days
  • Water Temperature
  • Weather Map
  • Weather Widgets
  • user-avatar
    Login

    Hourly Weather Maracaibo

    Today, 23 October, Wednesday

    Time Temperature Precipitation Wind Pressure Humidity
    00:00 +27°C° 0 mm 2 mps 752 mmHg 83%
    01:00 +26°C° 0 mm 2 mps 752 mmHg 85%
    02:00 +26°C° 0 mm 2 mps 752 mmHg 86%
    03:00 +26°C° 0 mm 2 mps 751 mmHg 87%
    04:00 +26°C° 0 mm 2 mps 751 mmHg 88%
    05:00 +26°C° 0 mm 2 mps 752 mmHg 87%
    06:00 +27°C° 0 mm 1 mps 752 mmHg 86%
    07:00 +27°C° 0 mm 1 mps 752 mmHg 84%
    08:00 +29°C° 0 mm 1 mps 752 mmHg 78%
    09:00 +30°C° 0 mm 1 mps 753 mmHg 72%
    10:00 +32°C° 0 mm 1 mps 753 mmHg 65%
    11:00 +32°C° 0.1 mm 1 mps 752 mmHg 64%
    12:00 +32°C° 0.1 mm 1 mps 751 mmHg 63%
    13:00 +33°C° 0.1 mm 1 mps 750 mmHg 62%
    14:00 +32°C° 0.1 mm 1 mps 750 mmHg 65%
    15:00 +32°C° 0.1 mm 2 mps 750 mmHg 67%
    16:00 +31°C° 0.1 mm 2 mps 750 mmHg 70%
    17:00 +30°C° 0.2 mm 2 mps 750 mmHg 74%
    18:00 +29°C° 0.2 mm 2 mps 750 mmHg 77%
    19:00 +28°C° 0.2 mm 3 mps 751 mmHg 81%
    20:00 +28°C° 0.2 mm 3 mps 751 mmHg 82%
    21:00 +28°C° 0.2 mm 3 mps 752 mmHg 83%
    22:00 +28°C° 0.2 mm 3 mps 752 mmHg 85%
    23:00 +27°C° 2.6 mm 3 mps 752 mmHg 86%

    Tomorrow, 24 October, Thursday

    Time Temperature Precipitation Wind Pressure Humidity
    00:00 +27°C° 2.6 mm 2 mps 751 mmHg 87%
    01:00 +27°C° 2.6 mm 2 mps 751 mmHg 89%
    02:00 +27°C° 0.9 mm 2 mps 751 mmHg 89%
    03:00 +27°C° 0.9 mm 2 mps 751 mmHg 89%
    04:00 +27°C° 0.9 mm 2 mps 751 mmHg 89%
    05:00 +27°C° 0.3 mm 2 mps 751 mmHg 88%
    06:00 +27°C° 0.3 mm 2 mps 752 mmHg 88%
    07:00 +27°C° 0.3 mm 2 mps 752 mmHg 88%
    08:00 +29°C° 0.3 mm 2 mps 752 mmHg 82%
    09:00 +30°C° 0.3 mm 2 mps 752 mmHg 77%
    10:00 +31°C° 0.3 mm 2 mps 753 mmHg 72%
    11:00 +32°C° 0.3 mm 2 mps 752 mmHg 69%
    12:00 +32°C° 0.3 mm 1 mps 751 mmHg 66%
    13:00 +33°C° 0.3 mm 1 mps 750 mmHg 64%
    14:00 +32°C° 0 mm 1 mps 750 mmHg 66%
    15:00 +32°C° 0 mm 1 mps 749 mmHg 68%
    16:00 +32°C° 0 mm 1 mps 749 mmHg 70%
    17:00 +31°C° 0.3 mm 2 mps 750 mmHg 74%
    18:00 +29°C° 0.3 mm 2 mps 750 mmHg 78%
    19:00 +28°C° 0.3 mm 2 mps 750 mmHg 82%
    20:00 +28°C° 0.4 mm 2 mps 751 mmHg 83%
    21:00 +28°C° 0.4 mm 3 mps 751 mmHg 84%
    22:00 +28°C° 0.4 mm 3 mps 752 mmHg 85%
    23:00 +28°C° 0.5 mm 3 mps 752 mmHg 86%

    Day after tomorrow, 25 October, Friday

    Time Temperature Precipitation Wind Pressure Humidity
    00:00 +28°C° 0.5 mm 2 mps 751 mmHg 86%
    01:00 +27°C° 0.5 mm 2 mps 751 mmHg 87%
    02:00 +27°C° 0.2 mm 2 mps 751 mmHg 87%
    03:00 +27°C° 0.2 mm 2 mps 751 mmHg 88%
    04:00 +27°C° 0.2 mm 1 mps 751 mmHg 89%
    05:00 +27°C° 0.3 mm 1 mps 751 mmHg 88%
    06:00 +27°C° 0.3 mm 1 mps 752 mmHg 88%
    07:00 +28°C° 0.3 mm 1 mps 752 mmHg 87%
    08:00 +28°C° 0.1 mm 1 mps 752 mmHg 84%
    09:00 +29°C° 0.1 mm 1 mps 752 mmHg 81%
    10:00 +30°C° 0.1 mm 1 mps 753 mmHg 78%
    11:00 +31°C° 0 mm 1 mps 752 mmHg 72%
    12:00 +32°C° 0 mm 1 mps 751 mmHg 67%
    13:00 +33°C° 0 mm 1 mps 750 mmHg 62%
    14:00 +32°C° 0 mm 1 mps 750 mmHg 66%
    15:00 +31°C° 0 mm 1 mps 750 mmHg 69%
    16:00 +31°C° 0 mm 1 mps 750 mmHg 72%
    17:00 +30°C° 0.2 mm 2 mps 750 mmHg 75%
    18:00 +29°C° 0.2 mm 2 mps 751 mmHg 78%
    19:00 +28°C° 0.2 mm 3 mps 751 mmHg 80%
    20:00 +28°C° 0.7 mm 3 mps 751 mmHg 81%
    21:00 +28°C° 0.7 mm 2 mps 752 mmHg 82%
    22:00 +28°C° 0.7 mm 2 mps 752 mmHg 83%
    23:00 +28°C° 0.3 mm 2 mps 752 mmHg 84%

    26 October, Saturday

    Time Temperature Precipitation Wind Pressure Humidity
    00:00 +27°C° 0.3 mm 2 mps 752 mmHg 86%
    01:00 +27°C° 0.3 mm 2 mps 751 mmHg 87%
    02:00 +27°C° 0.5 mm 2 mps 751 mmHg 88%
    03:00 +27°C° 0.5 mm 2 mps 751 mmHg 89%
    04:00 +26°C° 0.5 mm 2 mps 751 mmHg 90%
    05:00 +27°C° 0.3 mm 2 mps 752 mmHg 89%
    06:00 +27°C° 0.3 mm 2 mps 752 mmHg 89%
    07:00 +27°C° 0.3 mm 2 mps 753 mmHg 89%
    08:00 +28°C° 0 mm 1 mps 753 mmHg 83%
    09:00 +30°C° 0 mm 1 mps 753 mmHg 78%
    10:00 +31°C° 0 mm 1 mps 753 mmHg 72%
    11:00 +31°C° 0 mm 1 mps 752 mmHg 70%
    12:00 +32°C° 0 mm 1 mps 751 mmHg 68%
    13:00 +32°C° 0 mm 1 mps 751 mmHg 65%
    14:00 +32°C° 0.1 mm 1 mps 750 mmHg 67%
    15:00 +32°C° 0.1 mm 2 mps 750 mmHg 68%
    16:00 +32°C° 0.1 mm 2 mps 750 mmHg 70%
    17:00 +31°C° 0.2 mm 2 mps 750 mmHg 73%
    18:00 +30°C° 0.2 mm 3 mps 751 mmHg 77%
    19:00 +28°C° 0.2 mm 3 mps 751 mmHg 81%
    20:00 +28°C° 1.1 mm 3 mps 751 mmHg 83%
    21:00 +28°C° 1.1 mm 3 mps 752 mmHg 84%
    22:00 +28°C° 1.1 mm 4 mps 752 mmHg 86%
    23:00 +28°C° 1 mm 3 mps 752 mmHg 86%

    27 October, Sunday

    Time Temperature Precipitation Wind Pressure Humidity
    00:00 +28°C° 1 mm 3 mps 751 mmHg 86%
    01:00 +28°C° 1 mm 3 mps 751 mmHg 86%
    02:00 +27°C° 0 mm 3 mps 751 mmHg 87%
    03:00 +27°C° 0 mm 2 mps 751 mmHg 88%
    04:00 +27°C° 0 mm 2 mps 751 mmHg 90%
    05:00 +27°C° 0 mm 2 mps 751 mmHg 88%
    06:00 +28°C° 0 mm 2 mps 751 mmHg 87%
    07:00 +28°C° 0 mm 1 mps 752 mmHg 86%
    08:00 +29°C° 0.7 mm 2 mps 752 mmHg 81%
    09:00 +30°C° 0.7 mm 2 mps 752 mmHg 76%
    10:00 +32°C° 0.7 mm 2 mps 752 mmHg 71%
    11:00 +32°C° 0.5 mm 2 mps 751 mmHg 69%
    12:00 +34°C° 0.5 mm 2 mps 751 mmHg 67%
    13:00 +34°C° 0.5 mm 2 mps 750 mmHg 64%
    14:00 +32°C° 0.3 mm 2 mps 749 mmHg 67%
    15:00 +33°C° 0.3 mm 3 mps 749 mmHg 69%
    16:00 +33°C° 0.3 mm 3 mps 749 mmHg 72%
    17:00 +31°C° 0.2 mm 3 mps 749 mmHg 75%
    18:00 +30°C° 0.2 mm 4 mps 750 mmHg 78%
    19:00 +29°C° 0.2 mm 4 mps 751 mmHg 81%
    20:00 +29°C° 1.4 mm 4 mps 751 mmHg 82%
    21:00 +29°C° 1.4 mm 4 mps 751 mmHg 83%
    22:00 +28°C° 1.4 mm 4 mps 751 mmHg 85%
    23:00 +28°C° 1 mm 4 mps 751 mmHg 85%

    28 October, Monday

    Time Temperature Precipitation Wind Pressure Humidity
    00:00 +28°C° 1 mm 3 mps 751 mmHg 86%
    01:00 +28°C° 1 mm 3 mps 751 mmHg 86%
    02:00 +27°C° 0.3 mm 2 mps 751 mmHg 87%
    03:00 +27°C° 0.3 mm 2 mps 750 mmHg 88%
    04:00 +27°C° 0.3 mm 2 mps 750 mmHg 88%
    05:00 +27°C° 0.4 mm 2 mps 751 mmHg 87%
    06:00 +28°C° 0.4 mm 2 mps 751 mmHg 86%
    07:00 +28°C° 0.4 mm 2 mps 752 mmHg 85%
    08:00 +29°C° 0.5 mm 3 mps 752 mmHg 79%
    09:00 +31°C° 0.5 mm 3 mps 752 mmHg 74%
    10:00 +33°C° 0.5 mm 3 mps 752 mmHg 68%
    11:00 +33°C° 0.3 mm 3 mps 751 mmHg 69%
    12:00 +33°C° 0.3 mm 3 mps 751 mmHg 69%
    13:00 +32°C° 0.3 mm 2 mps 750 mmHg 70%
    14:00 +32°C° 0.3 mm 2 mps 749 mmHg 71%
    15:00 +32°C° 0.3 mm 2 mps 749 mmHg 72%
    16:00 +32°C° 0.3 mm 2 mps 749 mmHg 73%
    17:00 +31°C° 0.1 mm 2 mps 749 mmHg 76%
    18:00 +30°C° 0.1 mm 3 mps 750 mmHg 78%
    19:00 +29°C° 0.1 mm 3 mps 750 mmHg 81%
    20:00 +29°C° 0.6 mm 3 mps 751 mmHg 82%
    21:00 +29°C° 0.6 mm 4 mps 751 mmHg 83%
    22:00 +28°C° 0.6 mm 4 mps 751 mmHg 84%
    23:00 +28°C° 0.2 mm 4 mps 751 mmHg 85%

    29 October, Tuesday

    Time Temperature Precipitation Wind Pressure Humidity
    00:00 +28°C° 0.2 mm 3 mps 751 mmHg 86%
    01:00 +27°C° 0.2 mm 3 mps 750 mmHg 86%
    02:00 +27°C° 0.1 mm 3 mps 750 mmHg 87%
    03:00 +27°C° 0.1 mm 3 mps 750 mmHg 87%
    04:00 +27°C° 0.1 mm 2 mps 750 mmHg 87%
    05:00 +27°C° 0.1 mm 2 mps 751 mmHg 86%
    06:00 +28°C° 0.1 mm 2 mps 751 mmHg 85%
    07:00 +28°C° 0.1 mm 1 mps 752 mmHg 83%
    08:00 +29°C° 0.2 mm 2 mps 752 mmHg 78%
    09:00 +31°C° 0.2 mm 2 mps 752 mmHg 73%
    10:00 +32°C° 0.2 mm 2 mps 752 mmHg 67%
    11:00 +32°C° 0.5 mm 2 mps 751 mmHg 67%
    12:00 +32°C° 0.5 mm 2 mps 751 mmHg 67%
    13:00 +34°C° 0.5 mm 2 mps 750 mmHg 66%
    14:00 +32°C° 0.3 mm 2 mps 749 mmHg 69%
    15:00 +32°C° 0.3 mm 2 mps 749 mmHg 71%
    16:00 +31°C° 0.3 mm 2 mps 749 mmHg 73%
    17:00 +30°C° 0.1 mm 2 mps 750 mmHg 75%
    18:00 +30°C° 0.1 mm 2 mps 750 mmHg 78%
    19:00 +29°C° 0.1 mm 2 mps 751 mmHg 80%
    Show more